Regional Weather Roundup
Issued by NWS

Home | Current Version | Previous Version | Graphics & Text | Print | Product List | Glossary Off
Versions: 1 2 3 4 5 6 7 8 9 10 11 12 13 14 15 16 17 18 19 20 21 22 23 24 25 26 27 28 29 30 31 32 33 34 35 36 37 38 39 40 41 42 43 44 45 46 47 48 49 50

501
ASUS43 KTOP 221408
RWRKS

WEATHER ROUNDUP FOR KANSAS
NATIONAL WEATHER SERVICE GOODLAND KS
900 AM CDT THU JUN 22 2017

NOTE:  "FAIR" INDICATES FEW OR NO CLOUDS BELOW 12,000 FEET WITH NO
SIGNIFICANT WEATHER AND/OR OBSTRUCTIONS TO VISIBILITY.

KSZ001>006-013>018-027>032-041>047-221500-
NORTHWEST KANSAS

CITY           SKY/WX    TMP DP  RH WIND       PRES   REMARKS
GOODLAND       SUNNY     81  54  39 W16G24    29.75S
HAYS           SUNNY     78  61  55 S16       29.71F
HILL CITY      SUNNY     78  63  59 S8        29.68F
RUSSELL        SUNNY     77  59  53 S18       29.71F
$$

KSZ061>065-074>080-084>089-221500-
SOUTHWEST KANSAS

CITY           SKY/WX    TMP DP  RH WIND       PRES   REMARKS
DODGE CITY     SUNNY     75  61  61 S14       29.78F
ELKHART          N/A     73  51  46 W12         N/A
GARDEN CITY    SUNNY     74  62  66 S9        29.77S
GREAT BEND     SUNNY     77  60  55 S13       29.75F
LIBERAL        SUNNY     73  62  68 S13       29.80F
PRATT          SUNNY     74  56  54 S13       29.77S
$$

KSZ066>073-081>083-090>101-221500-
SOUTHEAST KANSAS

CITY           SKY/WX    TMP DP  RH WIND       PRES   REMARKS
COFFEYVILLE    SUNNY     78  70  76 SE17      29.77F
HUTCHINSON     SUNNY     78  63  59 S14       29.76S
MEDICINE LODGE   N/A     75  59  57 S10       29.76F
NEWTON         SUNNY     77  66  68 S18G24    29.79S
PARSONS        SUNNY     77  68  73 S9        29.79F
WICHITA INTL   MOSUNNY   76  67  73 S15       29.77S
WICHITA JABRA  SUNNY     76  67  73 S13       29.78S
WICHITA MCCONL SUNNY     76  66  71 SW13      29.78R
WINFIELD       SUNNY     76  68  76 S16       29.79F
$$

KSZ007>012-019>026-033>040-048>060-102>105-221500-
NORTHEAST KANSAS

CITY           SKY/WX    TMP DP  RH WIND       PRES   REMARKS
CONCORDIA      SUNNY     76  63  64 S20G26    29.69F
EMPORIA        SUNNY     75  68  78 S12       29.79R
LAWRENCE       SUNNY     77  68  73 S8        29.77S
MANHATTAN      CLOUDY    80  65  59 S14       29.73S
MARYSVILLE     MOSUNNY   75  64  69 S15G23    29.72S
OLATHE IND     SUNNY     76  67  73 S15G21    29.79F
OLATHE EXE     SUNNY     75  68  78 S15G22    29.78F
SALINA         MOSUNNY   79  63  57 S23G30    29.73F
TOPEKA BILLARD SUNNY     77  69  76 S12       29.75F
TOPEKA FORBES  SUNNY     78  68  71 S14       29.76F
$$




USA.gov is the U.S. government's official web portal to all federal, state and local government web resources and services.